STARLINK-35651, 66386

Orbit data source: Space-Track

STARLINK-35651, 66386 is a payload satellite owned by SpaceX/Seattle (US) in LEO that was launched on Sat, 08 Nov 2025 UTC via an FALCON 9 launch vehicle from the Air Force Eastern Test Range (AFETR). Payload-class satellites include a variety of spacecraft equipped with specific instruments for various scientific and technological missions. These include communications satellites like Starlink; space stations such as the ISS; scientific satellites like the Hubble; Earth observation satellites from companies like Planet Labs, Umbra, and HawkEye 360; GPS; miniature CubeSats for education and research; and military/defense satellites.

Loading next visibility...
Identifier
66386, 2025-257G
Orbit
LEO
Country
Flag of USUS
Related business
Manufacturer
SpaceX/Seattle
Mission
Operational Commercial Communications
Bus & Motor
STARLINK V2MO, Unknown motor
Mass
575 kg wet, ~530 kg dry
Launch date (UTC)
2025-11-08 (7 months ago)
Launch vehicle
FALCON 9
Launch site
Air Force Eastern Test Range (AFETR)
Object type
Payload
Rocket body
Debris
Shape & HBR
Box + 2 Pan, 17.7 m
Radar Cross Section
36.964 m², Large (>1 m²)

Expand to show TLE details & history
Last TLE update: 15 hours ago

TLE from 15 hours ago
0 STARLINK-35651
1 66386U 25257G   26171.21263212  .00016772  00000-0  57671-3 0  9998
2 66386  53.1587 100.5734 0001422  76.0686 284.0473 15.30221934 35435
Epoch: 2026-06-20T05:06Z
TLE epoch observation values (Epoch: 2026-06-20T05:06:11.415Z)
Latitude
0.00001°
Longitude
115.59535°
Altitude
475.813 km
Speed
7.629 km/s
True Right ascension
06h 42m 17s
True Declination
0° 00' 00"
Sunlit
Object was in daylight at epoch
Visualization orbit readout
Latitude
Unknown
Longitude
Unknown
Altitude
Unknown
Speed
Unknown
Apparent Right ascension
Unknown
Apparent Declination
Unknown
Sunlit
N/A
Visualization observer readout
Local Sidereal Time
07:17:57
Azimuth
Unknown
Elevation
Unknown
Doppler factor
Unknown
Orbital elements
Apogee altitude
476.381 km
Perigee altitude
474.432 km
Semi-major axis
6,853.543 km
Eccentricity
0.00014
Inclination
53.1587°
RAAN
100.5734°
Arg. of periapsis
76.0686°
True anomaly
284.03149°
Mean anomaly
284.0473°
Eccentric anomaly
284.0394°
Mean motion
3.82534 °/min
Orbital period
94.11 mins
BSTAR
0.00057671
Loading maneuver chart data...
Computing Atmospheric mass density...
Loading historical data...
Loading historical data...
Loading historical data...
Loading historical data...
Loading historical data...
Loading historical data...
Loading historical data...

Documentation

Showing up to 5 results
|